Torna al catalogo

SL-12 R/B

AUX MOTOR

AttivoHEO
NORAD 8546·ROCKET BODY·🇷🇺 Russia

Lanciato Dec 22, 1975 da Baikonur Cosmodrome

Loading…

Prossimi Passaggi (prossime 24 ore)

TLE

AggiornatoSource: Space-Track

Epoca: Sep 14, 2026, 12:26 UTC

1 08546U 75123D   26257.51871057 -.00000245  00000-0 -41669-4 0  9990
2 08546  46.0906 293.6451 5961772 116.1855 315.5625  3.99694296694120

Traccia SL-12 R/B in tempo reale con AllMySat

Download on the App Store